Weather History for KDXR - May, 2013

Change the Weather History Date:

Wednesday, May 22, 2013

  Actual Average Record
Temperature  
Mean Temperature 62 °F -  
Max Temperature 71 °F 73 °F 94 °F (1992)
Min Temperature 57 °F 49 °F 32 °F (2002)
Degree Days  
Heating Degree Days 2    
Growing Degree Days 12 (Base 50)    
Moisture  
Dew Point 58 °F    
Average Humidity 89    
Maximum Humidity 94    
Minimum Humidity 78    
Precipitation  
Precipitation 0.01 in - - ()
Sea Level Pressure  
Sea Level Pressure 29.93 in    
Wind  
Wind Speed 4 mph (ESE)    
Max Wind Speed 13 mph    
Max Gust Speed 20 mph    
Visibility 6 miles    
Events Rain , Thunderstorm    
Averages and records for this station are not official NWS values.
T = Trace of Precipitation, MM = Missing Value Source: NWS Daily Summary

Daily Weather History Graph

Daily Weather History Graph

Search for Another Location

Airport or City:

Trip Planner

Search our weather history database for the weather conditions in past years. The results will help you decide how hot, cold, wet, or windy it might be!

Date:

Astronomy

May. 22, 2013 Rise Set
Actual Time 5:28 AM EDT 8:12 PM EDT
Civil Twilight 4:56 AM EDT 8:45 PM EDT
Nautical Twilight 4:16 AM EDT 9:25 PM EDT
Astronomical Twilight 3:30 AM EDT 10:12 PM EDT
Moon 5:30 PM EDT (5/22) 3:33 AM EDT (5/22)
Length of Visible Light 15h 48m
Length of Day
14h 44m
Waxing Gibbous, 91% of the Moon is Illuminated
May 22
Waxing Gibbous
May 25
Full
May 31
Last Quarter
Jun 8
New
Jun 16
First Quarter

Hourly Weather History & Observations

Time (EDT) Temp. Dew Point Humidity Pressure Visibility Wind Dir Wind Speed Gust Speed Precip Events Conditions
12:53 AM 66.9 °F 63.0 °F 87% 29.89 in 7.0 mi Calm Calm - N/A   Clear
1:44 AM 66.2 °F 62.6 °F 88% 29.90 in 6.0 mi ENE 4.6 mph - N/A   Scattered Clouds
1:53 AM 66.0 °F 63.0 °F 90% 29.90 in 6.0 mi East 3.5 mph - N/A   Mostly Cloudy
2:53 AM 64.9 °F 62.1 °F 90% 29.89 in 4.0 mi East 3.5 mph - N/A   Overcast
3:53 AM 62.1 °F 57.0 °F 84% 29.91 in 8.0 mi NE 12.7 mph 18.4 mph N/A   Overcast
4:16 AM 59.0 °F 55.4 °F 88% 29.92 in 6.0 mi ENE 9.2 mph 19.6 mph N/A Thunderstorm Overcast
4:53 AM 57.0 °F 54.0 °F 89% 29.95 in 6.0 mi NNE 8.1 mph - N/A   Overcast
5:06 AM 57.2 °F 53.6 °F 88% 29.94 in 6.0 mi East 11.5 mph - 0.01 in Rain , Thunderstorm Light Rain
5:21 AM 57.2 °F 53.6 °F 88% 29.93 in 10.0 mi SE 5.8 mph - 0.01 in Thunderstorm Overcast
5:33 AM 57.2 °F 55.4 °F 94% 29.93 in 10.0 mi Variable 3.5 mph - 0.01 in   Overcast
5:53 AM 57.9 °F 55.0 °F 90% 29.93 in 10.0 mi SE 8.1 mph - 0.01 in   Overcast
6:46 AM 59.0 °F 55.4 °F 88% 29.94 in 10.0 mi ESE 5.8 mph - N/A   Overcast
6:53 AM 59.0 °F 55.9 °F 90% 29.93 in 10.0 mi SE 6.9 mph - N/A   Overcast
7:53 AM 57.9 °F 55.9 °F 93% 29.94 in 6.0 mi Calm Calm - N/A   Overcast
8:23 AM 57.2 °F 55.4 °F 94% 29.95 in 2.5 mi Calm Calm - N/A   Overcast
8:41 AM 57.2 °F 55.4 °F 94% 29.95 in 1.5 mi South 4.6 mph - N/A   Overcast
8:53 AM 57.0 °F 55.0 °F 93% 29.94 in 1.5 mi SE 4.6 mph - N/A   Overcast
9:43 AM 59.0 °F 55.4 °F 88% 29.94 in 2.0 mi SE 3.5 mph - N/A   Overcast
9:53 AM 59.0 °F 57.0 °F 93% 29.94 in 2.5 mi Calm Calm - N/A   Overcast
10:26 AM 60.8 °F 57.2 °F 88% 29.95 in 3.0 mi WSW 3.5 mph - N/A   Overcast
10:53 AM 62.1 °F 57.9 °F 86% 29.94 in 3.0 mi Calm Calm - N/A   Overcast
11:53 AM 66.0 °F 61.0 °F 84% 29.93 in 6.0 mi East 3.5 mph - N/A   Haze
12:17 PM 68.0 °F 62.6 °F 83% 29.94 in 6.0 mi SW 3.5 mph - N/A   Haze
12:53 PM 71.1 °F 64.0 °F 78% 29.92 in 6.0 mi Calm Calm - N/A   Haze